DW8343 Weather Reports


time (UTC)temp
C
wind
direction
speed
KPH
gust
KPH
rain 1hr
cm
rain 24hr
cm
rain mn
cm
humidity
%
barometer
mb
20260504021753 23 261 3.2 11.3 0.00 0.00 0.00 37 1013.3
20260504021250 23 254 3.2 11.3 0.00 0.00 0.00 36 1013.1
20260504020747 23 252 4.8 14.5 0.00 0.00 0.00 36 1013.0
20260504020243 23 323 1.6 4.8 0.00 0.00 0.00 37 1013.3
20260504015739 23 165 9.7 12.9 0.00 0.00 0.00 36 1013.1
20260504015236 23 72 6.4 11.3 0.00 0.00 0.00 35 1012.8
20260504014732 23 137 1.6 14.5 0.00 0.00 0.00 35 1012.8
20260504014229 24 149 3.2 6.4 0.00 0.00 0.00 35 1012.7
20260504013727 24 264 6.4 9.7 0.00 0.00 0.00 34 1012.8
20260504013224 24 291 4.8 16.1 0.00 0.00 0.00 34 1012.8
20260504012720 24 233 11.3 14.5 0.00 0.00 0.00 33 1012.8
20260504012218 24 320 4.8 16.1 0.00 0.00 0.00 33 1012.8
20260504011715 25 185 4.8 12.9 0.00 0.00 0.00 33 1012.6
20260504011212 25 239 6.4 9.7 0.00 0.00 0.00 32 1012.8
20260504010708 25 192 4.8 11.3 0.00 0.00 0.00 32 1013.0
20260504010203 25 193 3.2 12.9 0.00 0.00 0.00 31 1013.0
20260504005700 25 187 3.2 12.9 0.00 0.00 0.00 30 1013.1
20260504005157 25 290 1.6 9.7 0.00 0.00 0.00 31 1013.0
20260504004655 26 12 1.6 9.7 0.00 0.00 0.00 30 1013.0
20260504004152 26 262 11.3 20.9 0.00 0.00 0.00 30 1013.1
20260504003648 26 276 6.4 9.7 0.00 0.00 0.00 30 1012.6
20260504003145 26 270 3.2 20.9 0.00 0.00 0.00 30 1013.2
20260504002642 26 238 4.8 9.7 0.00 0.00 0.00 30 1013.0
20260504002139 26 215 6.4 14.5 0.00 0.00 0.00 29 1013.2
20260504001637 26 241 8.0 11.3 0.00 0.00 0.00 28 1013.0
20260504001133 27 275 8.0 16.1 0.00 0.00 0.00 28 1013.3
20260504000630 27 330 3.2 11.3 0.00 0.00 0.00 28 1013.3
20260504000128 27 330 6.4 11.3 0.00 0.00 0.00 28 1013.2
20260503235626 27 205 3.2 16.1 0.00 0.00 0.00 28 1013.3
20260503235122 27 45 1.6 11.3 0.00 0.00 0.00 28 1013.4
20260503234620 27 235 4.8 9.7 0.00 0.00 0.00 27 1013.5
20260503234118 27 249 4.8 22.5 0.00 0.00 0.00 26 1013.5
20260503233615 27 238 6.4 22.5 0.00 0.00 0.00 26 1013.8
20260503233110 27 265 4.8 6.4 0.00 0.00 0.00 26 1013.5
20260503232608 27 189 6.4 14.5 0.00 0.00 0.00 27 1013.5
20260503232105 28 212 1.6 14.5 0.00 0.00 0.00 27 1013.6
20260503231603 28 231 8.0 12.9 0.00 0.00 0.00 26 1013.5
20260503231059 27 210 14.5 22.5 0.00 0.00 0.00 26 1013.6
20260503230555 28 262 9.7 16.1 0.00 0.00 0.00 26 1013.7
20260503230052 28 206 14.5 22.5 0.00 0.00 0.00 25 1013.6
20260503225549 28 48 3.2 17.7 0.00 0.00 0.00 26 1013.6
20260503225044 28 149 6.4 11.3 0.00 0.00 0.00 25 1013.6
20260503224542 28 72 9.7 20.9 0.00 0.00 0.00 25 1013.6
20260503224040 28 244 8.0 12.9 0.00 0.00 0.00 25 1013.8
20260503223538 28 285 3.2 14.5 0.00 0.00 0.00 26 1013.7
20260503223033 28 143 3.2 14.5 0.00 0.00 0.00 27 1013.6
20260503222531 29 297 4.8 12.9 0.00 0.00 0.00 26 1013.7
20260503222029 28 117 4.8 11.3 0.00 0.00 0.00 26 1013.9
20260503221527 28 265 4.8 17.7 0.00 0.00 0.00 26 1013.9
20260503221024 29 136 8.0 12.9 0.00 0.00 0.00 26 1013.8
20260503220520 29 253 9.7 16.1 0.00 0.00 0.00 26 1014.0
20260503220017 29 221 12.9 20.9 0.00 0.00 0.00 27 1014.1
20260503215514 28 223 6.4 22.5 0.00 0.00 0.00 27 1014.2
20260503215011 29 220 6.4 16.1 0.00 0.00 0.00 27 1014.2
20260503214510 29 280 9.7 14.5 0.00 0.00 0.00 27 1013.9
20260503214006 29 21 1.6 14.5 0.00 0.00 0.00 27 1013.9
20260503213504 29 39 3.2 6.4 0.00 0.00 0.00 28 1014.3
20260503213000 29 176 9.7 16.1 0.00 0.00 0.00 26 1014.4
20260503212458 29 346 3.2 11.3 0.00 0.00 0.00 25 1014.7
20260503211955 30 203 6.4 14.5 0.00 0.00 0.00 24 1014.5
20260503211452 29 185 6.4 14.5 0.00 0.00 0.00 24 1014.6
20260503210948 30 299 6.4 12.9 0.00 0.00 0.00 24 1014.8
20260503210445 29 104 6.4 17.7 0.00 0.00 0.00 26 1014.8
20260503205939 29 172 6.4 12.9 0.00 0.00 0.00 26 1014.9
20260503205437 30 354 1.6 4.8 0.00 0.00 0.00 26 1014.8
20260503204933 30 253 6.4 12.9 0.00 0.00 0.00 24 1015.0
20260503204430 29 77 1.6 9.7 0.00 0.00 0.00 27 1015.0
20260503203927 29 202 6.4 12.9 0.00 0.00 0.00 25 1015.1
20260503203425 29 327 6.4 24.1 0.00 0.00 0.00 25 1015.2
20260503202921 29 249 6.4 12.9 0.00 0.00 0.00 25 1015.4
20260503202420 29 297 8.0 11.3 0.00 0.00 0.00 25 1015.4
20260503201918 29 279 4.8 17.7 0.00 0.00 0.00 26 1015.5
20260503201414 29 196 4.8 11.3 0.00 0.00 0.00 26 1015.3
20260503200912 28 227 8.0 14.5 0.00 0.00 0.00 27 1015.7
20260503200408 29 347 6.4 12.9 0.00 0.00 0.00 28 1015.8
20260503195905 29 174 6.4 14.5 0.00 0.00 0.00 27 1015.9
20260503195402 29 146 9.7 24.1 0.00 0.00 0.00 26 1015.9
20260503194859 29 241 4.8 9.7 0.00 0.00 0.00 26 1015.7
20260503194355 29 265 9.7 22.5 0.00 0.00 0.00 25 1016.3
20260503193851 29 230 9.7 12.9 0.00 0.00 0.00 25 1016.2
20260503193347 29 239 3.2 12.9 0.00 0.00 0.00 25 1016.1
20260503192843 29 196 6.4 14.5 0.00 0.00 0.00 23 1016.6
20260503192338 29 251 9.7 12.9 0.00 0.00 0.00 23 1016.4
20260503191835 28 229 8.0 12.9 0.00 0.00 0.00 23 1016.5
20260503191332 28 271 3.2 9.7 0.00 0.00 0.00 25 1016.7
20260503190829 28 249 6.4 14.5 0.00 0.00 0.00 24 1016.9
20260503190326 28 335 3.2 14.5 0.00 0.00 0.00 28 1016.6
20260503185823 28 278 6.4 17.7 0.00 0.00 0.00 26 1016.7
20260503185320 28 192 3.2 16.1 0.00 0.00 0.00 26 1016.7
20260503184819 28 286 6.4 16.1 0.00 0.00 0.00 24 1016.9
20260503184316 28 304 4.8 9.7 0.00 0.00 0.00 24 1016.9
20260503183811 28 223 3.2 14.5 0.00 0.00 0.00 26 1017.0
20260503183309 28 240 6.4 11.3 0.00 0.00 0.00 27 1017.1
20260503182806 29 129 6.4 20.9 0.00 0.00 0.00 27 1017.0
20260503182306 29 260 8.0 16.1 0.00 0.00 0.00 26 1017.1
20260503181802 29 16 3.2 6.4 0.00 0.00 0.00 30 1017.3
20260503181259 29 284 11.3 14.5 0.00 0.00 0.00 27 1017.2
20260503180755 28 228 11.3 17.7 0.00 0.00 0.00 28 1017.5
20260503180253 28 318 4.8 16.1 0.00 0.00 0.00 28 1017.6
20260503175749 28 207 1.6 16.1 0.00 0.00 0.00 30 1017.5
20260503175248 28 238 8.0 14.5 0.00 0.00 0.00 29 1017.5
20260503174743 28 18 3.2 9.7 0.00 0.00 0.00 34 1017.7
20260503174242 28 270 6.4 12.9 0.00 0.00 0.00 33 1017.8
20260503173742 28 236 6.4 9.7 0.00 0.00 0.00 34 1017.8
20260503173238 28 227 3.2 9.7 0.00 0.00 0.00 34 1017.9
20260503172735 28 354 1.6 9.7 0.00 0.00 0.00 35 1018.2
20260503172232 27 206 3.2 6.4 0.00 0.00 0.00 37 1018.2
20260503171728 27 283 3.2 6.4 0.00 0.00 0.00 36 1018.3
20260503171226 27 308 3.2 9.7 0.00 0.00 0.00 36 1018.3
20260503170723 27 322 3.2 6.4 0.00 0.00 0.00 37 1018.2
20260503170220 26 244 8.0 9.7 0.00 0.00 0.00 37 1018.2
20260503160141 24 269 3.2 4.8 0.00 0.00 0.00 40 1018.6
20260503150611 22 84 1.6 6.4 0.00 0.00 0.00 44 1018.6
20260503150108 21 35 1.6 3.2 0.00 0.00 0.00 48 1018.7
20260503130955 15 93 0.0 3.2 0.00 0.00 0.00 72 1018.7
20260503130453 13 233 3.2 4.8 0.00 0.00 0.00 73 1018.7
20260503110337 12 128 0.0 3.2 0.00 0.00 0.00 73 1018.4
20260503090224 13 35 3.2 4.8 0.00 0.00 0.00 64 1019.8
20260503081151 13 41 0.0 4.8 0.00 0.00 0.00 64 1020.0
20260503080646 14 1 1.6 3.2 0.00 0.00 0.00 63 1020.1
20260503080144 14 30 1.6 3.2 0.00 0.00 0.00 63 1020.3
20260503072621 14 106 1.6 3.2 0.00 0.00 0.00 61 1020.5
20260503072117 14 53 3.2 4.8 0.00 0.00 0.00 61 1020.6
20260503071614 14 91 1.6 6.4 0.00 0.00 0.00 61 1020.5
20260503071111 14 260 0.0 3.2 0.00 0.00 0.00 61 1020.7
20260503070608 14 58 1.6 4.8 0.00 0.00 0.00 61 1020.7
20260503070106 14 319 0.0 1.6 0.00 0.00 0.00 61 1020.9
20260503055026 15 354 0.0 1.6 0.00 0.00 0.00 59 1021.0
20260503054522 15 91 1.6 3.2 0.00 0.00 0.00 58 1021.2
20260503054020 15 350 1.6 3.2 0.00 0.00 0.00 58 1021.1
20260503053518 15 309 0.0 1.6 0.00 0.00 0.00 58 1021.1
20260503053015 15 52 0.0 1.6 0.00 0.00 0.00 58 1021.0
20260503052512 15 25 0.0 1.6 0.00 0.00 0.00 58 1021.2
20260503052008 15 45 0.0 1.6 0.00 0.00 0.00 58 1021.1
20260503051503 15 21 0.0 4.8 0.00 0.00 0.00 58 1021.1
20260503051001 15 159 0.0 3.2 0.00 0.00 0.00 59 1020.9
20260503050456 15 45 0.0 3.2 0.00 0.00 0.00 58 1021.0
20260503045955 15 116 0.0 1.6 0.00 0.00 0.00 58 1020.8
20260503045452 15 323 0.0 0.0 0.00 0.00 0.00 59 1021.0
20260503044949 15 33 3.2 4.8 0.00 0.00 0.00 57 1020.9
20260503044445 15 97 0.0 1.6 0.00 0.00 0.00 59 1020.8
20260503043943 15 92 1.6 1.6 0.00 0.00 0.00 57 1021.0
20260503043439 15 58 0.0 3.2 0.00 0.00 0.00 58 1020.9
20260503042935 15 44 1.6 1.6 0.00 0.00 0.00 58 1020.8
20260503042432 16 280 0.0 1.6 0.00 0.00 0.00 58 1020.9
20260503041929 16 220 0.0 1.6 0.00 0.00 0.00 57 1020.8
20260503041426 16 67 3.2 4.8 0.00 0.00 0.00 57 1020.7
20260503040923 16 21 0.0 1.6 0.00 0.00 0.00 56 1020.7
20260503040420 16 9 0.0 3.2 0.00 0.00 0.00 56 1020.7
20260503035918 16 46 0.0 4.8 0.00 0.00 0.00 53 1020.7
20260503035414 16 89 0.0 1.6 0.00 0.00 0.00 53 1020.8
20260503034912 16 31 1.6 3.2 0.00 0.00 0.00 53 1020.6
20260503034409 16 39 0.0 1.6 0.00 0.00 0.00 53 1020.9
20260503033906 16 27 0.0 3.2 0.00 0.00 0.00 53 1021.0
20260503033404 16 50 0.0 0.0 0.00 0.00 0.00 53 1020.8
20260503032902 16 113 1.6 1.6 0.00 0.00 0.00 52 1020.9
20260503032400 16 317 0.0 1.6 0.00 0.00 0.00 53 1020.7
20260503031857 16 23 0.0 1.6 0.00 0.00 0.00 52 1020.8
20260503031349 16 78 0.0 1.6 0.00 0.00 0.00 52 1020.8
20260503030845 16 39 0.0 1.6 0.00 0.00 0.00 52 1020.6
20260503030342 16 101 0.0 3.2 0.00 0.00 0.00 52 1020.7
20260503025839 16 101 0.0 1.6 0.00 0.00 0.00 52 1020.6
20260503025336 17 101 0.0 0.0 0.00 0.00 0.00 52 1020.6
20260503024833 16 254 0.0 0.0 0.00 0.00 0.00 54 1020.6
20260503024330 16 71 0.0 0.0 0.00 0.00 0.00 52 1020.7
20260503023827 17 71 0.0 0.0 0.00 0.00 0.00 53 1020.6
20260503023324 17 71 0.0 3.2 0.00 0.00 0.00 51 1020.6
20260503022821 17 20 0.0 1.6 0.00 0.00 0.00 52 1020.6
20260503022320 17 307 0.0 0.0 0.00 0.00 0.00 52 1020.7